Time,TemperatureF,DewpointF,PressureIn,WindDirection,WindDirectionDegrees,WindSpeedMPH,WindSpeedGustMPH,Humidity,HourlyPrecipIn,Conditions,Clouds,dailyrainin,SoftwareType,DateUTC
2013-01-25 11:02:00,38.0,38.0,-100.00,South,185,0.0,2.0,99,-99.99,,,-99.99,,2013-01-25 18:02:00,
2013-01-25 11:11:00,38.0,37.0,-100.00,NW,315,1.0,4.0,96,-99.99,,,-99.99,,2013-01-25 18:11:00,
2013-01-25 11:23:00,38.0,37.0,-100.00,SSW,200,2.0,5.0,93,-99.99,,,-99.99,,2013-01-25 18:23:00,
2013-01-25 11:32:00,39.0,37.0,-100.00,SSW,200,2.0,6.0,91,-99.99,,,-99.99,,2013-01-25 18:32:00,
2013-01-25 11:42:00,40.0,37.0,-100.00,South,190,2.0,4.0,88,-99.99,,,-99.99,,2013-01-25 18:42:00,
2013-01-25 11:52:00,41.0,37.0,-100.00,SW,220,4.0,6.0,84,-99.99,,,-99.99,,2013-01-25 18:52:00,
2013-01-25 12:02:00,42.0,37.0,-100.00,SSE,160,2.0,7.0,80,-99.99,,,-99.99,,2013-01-25 19:02:00,
2013-01-25 12:12:00,43.0,36.0,-100.00,South,185,4.0,8.0,75,-99.99,,,-99.99,,2013-01-25 19:12:00,
2013-01-25 12:21:00,42.0,34.0,-100.00,SW,220,5.0,14.0,72,-99.99,,,-99.99,,2013-01-25 19:21:00,
2013-01-25 12:32:00,42.0,34.0,-100.00,SSW,205,8.0,14.0,71,-99.99,,,-99.99,,2013-01-25 19:32:00,
2013-01-25 12:42:00,43.0,34.0,-100.00,SW,230,7.0,14.0,71,-99.99,,,-99.99,,2013-01-25 19:42:00,
2013-01-25 12:52:00,42.0,33.0,-100.00,SW,215,7.0,17.0,70,-99.99,,,-99.99,,2013-01-25 19:52:00,
2013-01-25 13:02:00,42.0,33.0,-100.00,SW,220,9.0,18.0,70,-99.99,,,-99.99,,2013-01-25 20:02:00,
2013-01-25 13:11:00,42.0,33.0,-100.00,SSW,200,11.0,17.0,70,-99.99,,,-99.99,,2013-01-25 20:11:00,
2013-01-25 13:22:00,42.0,33.0,-100.00,SW,220,8.0,16.0,70,-99.99,,,-99.99,,2013-01-25 20:22:00,
2013-01-25 13:32:00,42.0,33.0,-100.00,SSW,195,7.0,16.0,70,-99.99,,,-99.99,,2013-01-25 20:32:00,
2013-01-25 13:42:00,43.0,34.0,-100.00,SSW,200,6.0,15.0,69,-99.99,,,-99.99,,2013-01-25 20:42:00,
2013-01-25 13:52:00,44.0,33.0,-100.00,SSW,195,6.0,14.0,66,-99.99,,,-99.99,,2013-01-25 20:52:00,
2013-01-25 14:02:00,44.0,33.0,-100.00,SSW,195,6.0,14.0,66,-99.99,,,-99.99,,2013-01-25 21:02:00,
2013-01-25 14:11:00,44.0,33.0,-100.00,SSW,205,7.0,12.0,66,-99.99,,,-99.99,,2013-01-25 21:11:00,
2013-01-25 14:22:00,43.0,33.0,-100.00,South,180,6.0,14.0,66,-99.99,,,-99.99,,2013-01-25 21:22:00,
2013-01-25 14:32:00,43.0,33.0,-100.00,SSW,200,4.0,21.0,66,-99.99,,,-99.99,,2013-01-25 21:32:00,
2013-01-25 14:42:00,43.0,33.0,-100.00,SSW,195,6.0,14.0,66,-99.99,,,-99.99,,2013-01-25 21:42:00,
2013-01-25 14:52:00,43.0,33.0,-100.00,South,175,4.0,12.0,66,-99.99,,,-99.99,,2013-01-25 21:52:00,
2013-01-25 15:02:00,43.0,33.0,-100.00,SSW,200,4.0,13.0,66,-99.99,,,-99.99,,2013-01-25 22:02:00,
2013-01-25 15:11:00,44.0,33.0,-100.00,SSW,200,4.0,14.0,66,-99.99,,,-99.99,,2013-01-25 22:11:00,
2013-01-25 15:22:00,43.0,33.0,-100.00,SSE,150,2.0,14.0,66,-99.99,,,-99.99,,2013-01-25 22:22:00,
2013-01-25 15:32:00,43.0,33.0,-100.00,South,180,4.0,17.0,67,-99.99,,,-99.99,,2013-01-25 22:32:00,
2013-01-25 15:42:00,43.0,33.0,-100.00,South,180,4.0,17.0,67,-99.99,,,-99.99,,2013-01-25 22:42:00,
2013-01-25 15:51:00,43.0,33.0,-100.00,SW,215,7.0,15.0,67,-99.99,,,-99.99,,2013-01-25 22:51:00,
2013-01-25 16:02:00,42.0,33.0,-100.00,SSW,205,7.0,18.0,67,-99.99,,,-99.99,,2013-01-25 23:02:00,
2013-01-25 16:11:00,42.0,33.0,-100.00,SW,215,9.0,16.0,68,-99.99,,,-99.99,,2013-01-25 23:11:00,
2013-01-25 16:22:00,42.0,33.0,-100.00,SSW,205,7.0,16.0,69,-99.99,,,-99.99,,2013-01-25 23:22:00,
2013-01-25 16:32:00,42.0,33.0,-100.00,SSE,165,6.0,12.0,70,-99.99,,,-99.99,,2013-01-25 23:32:00,
2013-01-25 16:42:00,41.0,33.0,-100.00,South,175,6.0,14.0,71,-99.99,,,-99.99,,2013-01-25 23:42:00,
2013-01-25 16:52:00,41.0,33.0,-100.00,South,175,3.0,11.0,71,-99.99,,,-99.99,,2013-01-25 23:52:00,
2013-01-25 17:01:00,41.0,33.0,-100.00,SSE,160,3.0,9.0,72,-99.99,,,-99.99,,2013-01-26 00:01:00,
2013-01-25 17:11:00,41.0,33.0,-100.00,South,190,4.0,9.0,72,-99.99,,,-99.99,,2013-01-26 00:11:00,
2013-01-25 17:22:00,41.0,33.0,-100.00,South,190,7.0,14.0,73,-99.99,,,-99.99,,2013-01-26 00:22:00,
2013-01-25 17:32:00,40.0,33.0,-100.00,South,190,3.0,12.0,74,-99.99,,,-99.99,,2013-01-26 00:32:00,
2013-01-25 17:41:00,40.0,33.0,-100.00,WNW,290,2.0,13.0,75,-99.99,,,-99.99,,2013-01-26 00:41:00,
2013-01-25 17:52:00,40.0,33.0,-100.00,South,180,4.0,13.0,75,-99.99,,,-99.99,,2013-01-26 00:52:00,
2013-01-25 18:01:00,40.0,33.0,-100.00,South,175,4.0,12.0,75,-99.99,,,-99.99,,2013-01-26 01:01:00,
2013-01-25 18:11:00,40.0,33.0,-100.00,SSW,210,3.0,13.0,76,-99.99,,,-99.99,,2013-01-26 01:11:00,
2013-01-25 18:22:00,40.0,33.0,-100.00,SSW,205,6.0,15.0,76,-99.99,,,-99.99,,2013-01-26 01:22:00,
2013-01-25 18:31:00,40.0,33.0,-100.00,South,190,7.0,15.0,77,-99.99,,,-99.99,,2013-01-26 01:31:00,
2013-01-25 18:42:00,40.0,33.0,-100.00,South,185,6.0,13.0,77,-99.99,,,-99.99,,2013-01-26 01:42:00,
2013-01-25 18:52:00,40.0,33.0,-100.00,SW,225,3.0,9.0,77,-99.99,,,-99.99,,2013-01-26 01:52:00,
2013-01-25 19:01:00,40.0,33.0,-100.00,SSW,205,4.0,14.0,78,-99.99,,,-99.99,,2013-01-26 02:01:00,
2013-01-25 19:11:00,39.0,33.0,-100.00,SW,230,6.0,9.0,79,-99.99,,,-99.99,,2013-01-26 02:11:00,
2013-01-25 19:22:00,39.0,34.0,-100.00,South,185,6.0,12.0,80,-99.99,,,-99.99,,2013-01-26 02:22:00,
2013-01-25 19:32:00,39.0,34.0,-100.00,South,185,4.0,12.0,80,-99.99,,,-99.99,,2013-01-26 02:32:00,
2013-01-25 19:42:00,40.0,34.0,-100.00,SSW,205,7.0,15.0,80,-99.99,,,-99.99,,2013-01-26 02:42:00,
2013-01-25 19:52:00,40.0,34.0,-100.00,South,190,4.0,16.0,80,-99.99,,,-99.99,,2013-01-26 02:52:00,
2013-01-25 20:01:00,40.0,34.0,-100.00,ENE,70,4.0,12.0,80,-99.99,,,-99.99,,2013-01-26 03:01:00,
2013-01-25 20:11:00,39.0,34.0,-100.00,SSW,195,2.0,7.0,80,-99.99,,,-99.99,,2013-01-26 03:11:00,
2013-01-25 20:21:00,39.0,34.0,-100.00,South,185,3.0,11.0,81,-99.99,,,-99.99,,2013-01-26 03:21:00,
2013-01-25 20:31:00,39.0,34.0,-100.00,South,175,6.0,12.0,81,-99.99,,,-99.99,,2013-01-26 03:31:00,
2013-01-25 20:42:00,39.0,34.0,-100.00,SSW,195,6.0,11.0,82,-99.99,,,-99.99,,2013-01-26 03:42:00,
2013-01-25 20:51:00,39.0,34.0,-100.00,SSW,210,6.0,12.0,83,-99.99,,,-99.99,,2013-01-26 03:51:00,
2013-01-25 21:01:00,39.0,34.0,-100.00,SSW,200,5.0,12.0,83,-99.99,,,-99.99,,2013-01-26 04:01:00,
2013-01-25 21:12:00,39.0,34.0,-100.00,South,190,4.0,15.0,84,-99.99,,,-99.99,,2013-01-26 04:12:00,
2013-01-25 21:21:00,39.0,34.0,-100.00,SW,235,3.0,11.0,84,-99.99,,,-99.99,,2013-01-26 04:21:00,
2013-01-25 21:32:00,39.0,34.0,-100.00,South,170,4.0,9.0,84,-99.99,,,-99.99,,2013-01-26 04:32:00,
2013-01-25 21:42:00,39.0,34.0,-100.00,SW,215,4.0,10.0,84,-99.99,,,-99.99,,2013-01-26 04:42:00,
2013-01-25 21:52:00,38.0,34.0,-100.00,SSW,200,4.0,11.0,84,-99.99,,,-99.99,,2013-01-26 04:52:00,
2013-01-25 22:03:00,38.0,34.0,-100.00,South,190,4.0,14.0,84,-99.99,,,-99.99,,2013-01-26 05:03:00,
2013-01-25 22:12:00,38.0,34.0,-100.00,South,190,5.0,12.0,84,-99.99,,,-99.99,,2013-01-26 05:12:00,
2013-01-25 22:22:00,38.0,34.0,-100.00,SW,225,2.0,9.0,85,-99.99,,,-99.99,,2013-01-26 05:22:00,
2013-01-25 22:33:00,38.0,34.0,-100.00,WNW,295,4.0,10.0,85,-99.99,,,-99.99,,2013-01-26 05:33:00,
2013-01-25 22:41:00,38.0,34.0,-100.00,South,190,4.0,10.0,85,-99.99,,,-99.99,,2013-01-26 05:41:00,
2013-01-25 22:52:00,38.0,34.0,-100.00,South,175,3.0,10.0,85,-99.99,,,-99.99,,2013-01-26 05:52:00,
2013-01-25 23:02:00,38.0,34.0,-100.00,SSW,200,4.0,8.0,85,-99.99,,,-99.99,,2013-01-26 06:02:00,
2013-01-25 23:11:00,38.0,34.0,-100.00,South,180,3.0,9.0,86,-99.99,,,-99.99,,2013-01-26 06:11:00,
2013-01-25 23:21:00,37.0,34.0,-100.00,South,180,3.0,6.0,86,-99.99,,,-99.99,,2013-01-26 06:21:00,
2013-01-25 23:31:00,37.0,34.0,-100.00,NNW,340,2.0,9.0,87,-99.99,,,-99.99,,2013-01-26 06:31:00,
2013-01-25 23:41:00,37.0,34.0,-100.00,South,185,1.0,7.0,87,-99.99,,,-99.99,,2013-01-26 06:41:00,
2013-01-25 23:51:00,37.0,34.0,-100.00,SSW,200,4.0,6.0,87,-99.99,,,-99.99,,2013-01-26 06:51:00,